Time,TemperatureF,DewpointF,PressureIn,WindDirection,WindDirectionDegrees,WindSpeedMPH,WindSpeedGustMPH,Humidity,HourlyPrecipIn,Conditions,Clouds,dailyrainin,SoftwareType,DateUTC
2013-11-10 00:22:00,29.0,-99.9,-100.00,North,0,0.0,0.0,-999,0.00,,,-99.99,,2013-11-10 07:22:00,
2013-11-10 00:52:00,30.0,-99.9,-100.00,North,0,0.0,0.0,-999,0.00,,,-99.99,,2013-11-10 07:52:00,
2013-11-10 01:22:00,28.0,-99.9,-100.00,North,0,0.0,0.0,-999,0.00,,,-99.99,,2013-11-10 08:22:00,
2013-11-10 01:53:00,29.0,-99.9,-100.00,North,0,0.0,0.0,-999,0.00,,,-99.99,,2013-11-10 08:53:00,
2013-11-10 02:22:00,31.0,-99.9,-100.00,North,0,0.0,0.0,-999,0.00,,,-99.99,,2013-11-10 09:22:00,
2013-11-10 02:53:00,31.0,-99.9,-100.00,North,0,0.0,0.0,-999,0.00,,,-99.99,,2013-11-10 09:53:00,
2013-11-10 03:23:00,31.0,-99.9,-100.00,North,0,0.0,0.0,-999,0.00,,,-99.99,,2013-11-10 10:23:00,
2013-11-10 03:53:00,31.0,-99.9,-100.00,North,0,0.0,0.0,-999,0.00,,,-99.99,,2013-11-10 10:53:00,
2013-11-10 04:22:00,30.0,-99.9,-100.00,North,0,0.0,0.0,-999,0.00,,,-99.99,,2013-11-10 11:22:00,
2013-11-10 04:52:00,30.0,-99.9,-100.00,North,0,0.0,0.0,-999,0.00,,,-99.99,,2013-11-10 11:52:00,
2013-11-10 05:22:00,31.0,-99.9,-100.00,North,0,0.0,0.0,-999,0.00,,,-99.99,,2013-11-10 12:22:00,
2013-11-10 05:52:00,31.0,-99.9,-100.00,North,0,0.0,0.0,-999,0.00,,,-99.99,,2013-11-10 12:52:00,
2013-11-10 06:22:00,32.0,-99.9,-100.00,North,0,0.0,0.0,-999,0.00,,,-99.99,,2013-11-10 13:22:00,
2013-11-10 06:52:00,33.0,-99.9,-100.00,North,0,0.0,0.0,-999,0.00,,,-99.99,,2013-11-10 13:52:00,
2013-11-10 07:22:00,34.0,-99.9,-100.00,North,0,0.0,0.0,-999,0.00,,,-99.99,,2013-11-10 14:22:00,
2013-11-10 07:52:00,34.0,-99.9,-100.00,North,0,0.0,0.0,-999,0.00,,,-99.99,,2013-11-10 14:52:00,
2013-11-10 08:22:00,34.0,-99.9,-100.00,North,0,0.0,0.0,-999,0.00,,,-99.99,,2013-11-10 15:22:00,
2013-11-10 08:54:00,34.0,-99.9,-100.00,North,0,0.0,0.0,-999,0.00,,,-99.99,,2013-11-10 15:54:00,
2013-11-10 09:24:00,37.0,-99.9,-100.00,NE,51,5.0,7.0,-999,0.00,,,-99.99,,2013-11-10 16:24:00,
2013-11-10 09:53:00,36.0,-99.9,-100.00,North,0,0.0,0.0,-999,0.00,,,-99.99,,2013-11-10 16:53:00,
2013-11-10 10:23:00,34.0,-99.9,-100.00,ENE,73,3.0,7.0,-999,0.00,,,-99.99,,2013-11-10 17:23:00,
2013-11-10 10:53:00,33.0,-99.9,-100.00,East,82,7.0,9.0,-999,0.00,,,-99.99,,2013-11-10 17:53:00,
2013-11-10 11:24:00,33.0,-99.9,-100.00,ENE,72,7.0,8.0,-999,0.00,,,-99.99,,2013-11-10 18:24:00,
2013-11-10 11:52:00,32.0,-99.9,-100.00,East,90,7.0,10.0,-999,0.00,,,-99.99,,2013-11-10 18:52:00,
2013-11-10 12:22:00,31.0,-99.9,-100.00,ENE,73,7.0,9.0,-999,0.00,,,-99.99,,2013-11-10 19:22:00,
2013-11-10 12:52:00,28.0,-99.9,-100.00,ENE,76,7.0,10.0,-999,0.00,,,-99.99,,2013-11-10 19:52:00,
2013-11-10 13:22:00,26.0,-99.9,-100.00,ENE,75,6.0,8.0,-999,0.00,,,-99.99,,2013-11-10 20:22:00,
2013-11-10 13:53:00,27.0,-99.9,-100.00,ENE,63,7.0,9.0,-999,0.00,,,-99.99,,2013-11-10 20:53:00,
2013-11-10 14:22:00,26.0,-99.9,-100.00,ENE,70,7.0,10.0,-999,0.00,,,-99.99,,2013-11-10 21:22:00,
2013-11-10 14:55:00,25.0,-99.9,-100.00,ENE,58,7.0,8.0,-999,0.00,,,-99.99,,2013-11-10 21:55:00,
2013-11-10 15:24:00,25.0,-99.9,-100.00,East,89,7.0,8.0,-999,0.00,,,-99.99,,2013-11-10 22:24:00,
2013-11-10 15:43:00,24.0,-99.9,-100.00,East,79,6.0,8.0,-999,0.00,,,-99.99,,2013-11-10 22:43:00,
2013-11-10 15:54:00,24.0,-99.9,-100.00,East,79,6.0,8.0,-999,0.00,,,-99.99,,2013-11-10 22:54:00,
2013-11-10 16:22:00,24.0,-99.9,-100.00,ENE,75,6.0,8.0,-999,0.00,,,-99.99,,2013-11-10 23:22:00,
2013-11-10 16:53:00,23.0,-99.9,-100.00,North,359,0.0,3.0,-999,0.00,,,-99.99,,2013-11-10 23:53:00,
2013-11-10 17:22:00,22.0,-99.9,-100.00,ENE,70,7.0,9.0,-999,0.00,,,-99.99,,2013-11-11 00:22:00,
2013-11-10 17:52:00,21.0,-99.9,-100.00,ENE,76,7.0,9.0,-999,0.00,,,-99.99,,2013-11-11 00:52:00,
2013-11-10 18:23:00,19.0,-99.9,-100.00,East,100,8.0,10.0,-999,0.00,,,-99.99,,2013-11-11 01:23:00,
2013-11-10 18:52:00,17.0,-99.9,-100.00,NE,55,7.0,9.0,-999,0.00,,,-99.99,,2013-11-11 01:52:00,
2013-11-10 19:22:00,17.0,-99.9,-100.00,NE,56,8.0,10.0,-999,0.00,,,-99.99,,2013-11-11 02:22:00,
2013-11-10 19:52:00,16.0,-99.9,-100.00,ENE,77,7.0,10.0,-999,0.00,,,-99.99,,2013-11-11 02:52:00,
2013-11-10 20:22:00,16.0,-99.9,-100.00,East,80,7.0,9.0,-999,0.00,,,-99.99,,2013-11-11 03:22:00,
2013-11-10 20:55:00,15.0,-99.9,-100.00,ENE,59,7.0,9.0,-999,0.00,,,-99.99,,2013-11-11 03:55:00,
2013-11-10 21:14:00,14.0,-99.9,-100.00,East,80,7.0,10.0,-999,0.00,,,-99.99,,2013-11-11 04:14:00,
2013-11-10 21:24:00,14.0,-99.9,-100.00,ENE,58,8.0,10.0,-999,0.00,,,-99.99,,2013-11-11 04:24:00,
2013-11-10 21:53:00,14.0,-99.9,-100.00,North,0,0.0,0.0,-999,0.00,,,-99.99,,2013-11-11 04:53:00,
2013-11-10 22:23:00,13.0,-99.9,-100.00,East,79,6.0,8.0,-999,0.00,,,-99.99,,2013-11-11 05:23:00,
2013-11-10 22:54:00,13.0,-99.9,-100.00,East,86,5.0,7.0,-999,0.00,,,-99.99,,2013-11-11 05:54:00,
2013-11-10 23:22:00,13.0,-99.9,-100.00,East,86,6.0,8.0,-999,0.00,,,-99.99,,2013-11-11 06:22:00,
2013-11-10 23:52:00,13.0,-99.9,-100.00,ENE,68,7.0,8.0,-999,0.00,,,-99.99,,2013-11-11 06:52:00,